• In Russia
  • List of Countries
  • For 7 days
  • Water Temperature
  • Satellite Maps
  • Weather Map
  • Weather Widgets
  • user-avatar
    Login

    Hourly Weather Vitim

    Today, 23 April, Tuesday

    Time Temperature Precipitation Wind Pressure Humidity
    00:00 -4°C° 0.3 mm 5 mps 711 mmHg 77%
    01:00 -4°C° 0.3 mm 5 mps 712 mmHg 74%
    02:00 -5°C° 0 mm 5 mps 712 mmHg 71%
    03:00 -5°C° 0.1 mm 5 mps 712 mmHg 69%
    04:00 -6°C° 0.1 mm 5 mps 713 mmHg 66%
    05:00 -6°C° 0.1 mm 6 mps 713 mmHg 64%
    06:00 -6°C° 0.1 mm 6 mps 714 mmHg 62%
    07:00 -6°C° 0.1 mm 6 mps 714 mmHg 59%
    08:00 -7°C° 0.1 mm 7 mps 714 mmHg 57%
    09:00 -6°C° 0 mm 7 mps 715 mmHg 55%
    10:00 -4°C° 0 mm 7 mps 715 mmHg 54%
    11:00 -3°C° 0 mm 6 mps 716 mmHg 52%
    12:00 -3°C° 0 mm 6 mps 716 mmHg 52%
    13:00 -2°C° 0 mm 6 mps 716 mmHg 52%
    14:00 -1°C° 0 mm 6 mps 717 mmHg 52%
    15:00 -1°C° 0 mm 6 mps 718 mmHg 53%
    16:00 -1°C° 0 mm 6 mps 718 mmHg 53%
    17:00 -1°C° 0 mm 6 mps 719 mmHg 54%
    18:00 -1°C° 0 mm 5 mps 720 mmHg 58%
    19:00 -3°C° 0 mm 4 mps 721 mmHg 63%
    20:00 -4°C° 0 mm 4 mps 722 mmHg 67%
    21:00 -4°C° 0 mm 3 mps 722 mmHg 69%
    22:00 -5°C° 0 mm 3 mps 723 mmHg 71%
    23:00 -5°C° 0 mm 2 mps 724 mmHg 74%

    Tomorrow, 24 April, Wednesday

    Time Temperature Precipitation Wind Pressure Humidity
    00:00 -5°C° 0 mm 2 mps 724 mmHg 74%
    01:00 -6°C° 0 mm 2 mps 725 mmHg 75%
    02:00 -4°C° 0 mm 1 mps 725 mmHg 75%
    03:00 -6°C° 0 mm 1 mps 725 mmHg 75%
    04:00 -6°C° 0 mm 1 mps 725 mmHg 75%
    05:00 -6°C° 0 mm 1 mps 726 mmHg 74%
    06:00 -3°C° 0 mm 1 mps 726 mmHg 68%
    07:00 -2°C° 0 mm 1 mps 726 mmHg 61%
    08:00 -1°C° 0 mm 0 mps 726 mmHg 54%
    09:00 0°C° 0 mm 0 mps 725 mmHg 50%
    10:00 +2°C° 0 mm 0 mps 725 mmHg 45%
    11:00 +3°C° 0 mm 0 mps 724 mmHg 41%
    12:00 +4°C° 0 mm 0 mps 724 mmHg 40%
    13:00 +5°C° 0 mm 1 mps 723 mmHg 39%
    14:00 +6°C° 0 mm 1 mps 723 mmHg 39%
    15:00 +6°C° 0 mm 1 mps 722 mmHg 40%
    16:00 +5°C° 0 mm 1 mps 722 mmHg 41%
    17:00 +5°C° 0 mm 1 mps 721 mmHg 42%
    18:00 +3°C° 0 mm 1 mps 721 mmHg 49%
    19:00 +2°C° 0 mm 1 mps 721 mmHg 55%
    20:00 0°C° 0 mm 1 mps 721 mmHg 62%
    21:00 0°C° 0 mm 1 mps 721 mmHg 62%
    22:00 -1°C° 0 mm 1 mps 722 mmHg 63%
    23:00 -1°C° 0 mm 1 mps 722 mmHg 64%

    Day after tomorrow, 25 April, Thursday

    Time Temperature Precipitation Wind Pressure Humidity
    00:00 -1°C° 0 mm 1 mps 721 mmHg 64%
    01:00 -2°C° 0 mm 1 mps 721 mmHg 64%
    02:00 -2°C° 0 mm 1 mps 721 mmHg 64%
    03:00 -2°C° 0 mm 1 mps 721 mmHg 64%
    04:00 -2°C° 0 mm 1 mps 721 mmHg 64%
    05:00 -3°C° 0 mm 1 mps 721 mmHg 64%
    06:00 -1°C° 0 mm 1 mps 721 mmHg 58%
    07:00 0°C° 0 mm 0 mps 720 mmHg 52%
    08:00 +2°C° 0 mm 0 mps 720 mmHg 47%
    09:00 +4°C° 0 mm 1 mps 720 mmHg 44%
    10:00 +5°C° 0 mm 1 mps 720 mmHg 42%
    11:00 +7°C° 0 mm 1 mps 719 mmHg 40%
    12:00 +8°C° 0 mm 1 mps 719 mmHg 39%
    13:00 +7°C° 0 mm 0 mps 719 mmHg 39%
    14:00 +8°C° 0 mm 0 mps 718 mmHg 38%
    15:00 +9°C° 0 mm 1 mps 718 mmHg 39%
    16:00 +9°C° 0 mm 1 mps 718 mmHg 40%
    17:00 +8°C° 0 mm 1 mps 717 mmHg 42%
    18:00 +6°C° 0 mm 1 mps 717 mmHg 48%
    19:00 +4°C° 0 mm 1 mps 717 mmHg 54%
    20:00 +3°C° 0 mm 1 mps 717 mmHg 60%
    21:00 +2°C° 0 mm 1 mps 718 mmHg 61%
    22:00 +1°C° 0 mm 0 mps 718 mmHg 62%
    23:00 0°C° 0 mm 0 mps 718 mmHg 62%

    26 April, Friday

    Time Temperature Precipitation Wind Pressure Humidity
    00:00 0°C° 0 mm 0 mps 718 mmHg 62%
    01:00 0°C° 0 mm 0 mps 718 mmHg 63%
    02:00 -1°C° 0 mm 0 mps 717 mmHg 63%
    03:00 -1°C° 0 mm 0 mps 717 mmHg 63%
    04:00 -1°C° 0 mm 0 mps 717 mmHg 63%
    05:00 -1°C° 0 mm 0 mps 717 mmHg 63%
    06:00 0°C° 0 mm 0 mps 717 mmHg 57%
    07:00 +2°C° 0 mm 0 mps 716 mmHg 51%
    08:00 +4°C° 0 mm 0 mps 716 mmHg 46%
    09:00 +5°C° 0 mm 0 mps 716 mmHg 43%
    10:00 +7°C° 0 mm 0 mps 716 mmHg 41%
    11:00 +9°C° 0 mm 1 mps 715 mmHg 39%
    12:00 +10°C° 0 mm 1 mps 715 mmHg 38%
    13:00 +11°C° 0 mm 1 mps 714 mmHg 37%
    14:00 +11°C° 0 mm 1 mps 714 mmHg 36%
    15:00 +11°C° 0 mm 1 mps 713 mmHg 37%
    16:00 +11°C° 0 mm 1 mps 713 mmHg 38%
    17:00 +11°C° 0 mm 1 mps 713 mmHg 39%
    18:00 +9°C° 0 mm 1 mps 713 mmHg 45%
    19:00 +7°C° 0 mm 1 mps 713 mmHg 52%
    20:00 +5°C° 0 mm 1 mps 713 mmHg 58%
    21:00 +4°C° 0 mm 1 mps 713 mmHg 59%
    22:00 +3°C° 0 mm 0 mps 713 mmHg 60%
    23:00 +3°C° 0 mm 0 mps 713 mmHg 60%

    27 April, Saturday

    Time Temperature Precipitation Wind Pressure Humidity
    00:00 +2°C° 0 mm 0 mps 713 mmHg 61%
    01:00 +2°C° 0 mm 0 mps 713 mmHg 61%
    02:00 +2°C° 0 mm 0 mps 713 mmHg 61%
    03:00 +2°C° 0 mm 0 mps 713 mmHg 62%
    04:00 +1°C° 0 mm 0 mps 714 mmHg 63%
    05:00 +1°C° 0 mm 0 mps 714 mmHg 65%
    06:00 +3°C° 0 mm 0 mps 714 mmHg 59%
    07:00 +5°C° 0 mm 0 mps 714 mmHg 53%
    08:00 +6°C° 0 mm 0 mps 714 mmHg 47%
    09:00 +9°C° 0 mm 1 mps 714 mmHg 45%
    10:00 +10°C° 0 mm 1 mps 714 mmHg 43%
    11:00 +12°C° 0 mm 1 mps 714 mmHg 41%
    12:00 +12°C° 0 mm 1 mps 714 mmHg 40%
    13:00 +13°C° 0 mm 1 mps 714 mmHg 40%
    14:00 +14°C° 0 mm 1 mps 714 mmHg 39%
    15:00 +14°C° 0 mm 1 mps 714 mmHg 39%
    16:00 +14°C° 0 mm 1 mps 714 mmHg 39%
    17:00 +14°C° 0 mm 1 mps 714 mmHg 39%
    18:00 +12°C° 0 mm 1 mps 715 mmHg 46%
    19:00 +10°C° 0 mm 1 mps 715 mmHg 52%
    20:00 +8°C° 0 mm 1 mps 715 mmHg 59%
    21:00 +7°C° 0 mm 1 mps 715 mmHg 61%
    22:00 +7°C° 0 mm 1 mps 716 mmHg 64%
    23:00 +6°C° 0 mm 1 mps 716 mmHg 66%

    28 April, Sunday

    Time Temperature Precipitation Wind Pressure Humidity
    00:00 +6°C° 0 mm 1 mps 716 mmHg 67%
    01:00 +4°C° 0 mm 0 mps 716 mmHg 68%
    02:00 +4°C° 0 mm 0 mps 716 mmHg 69%
    03:00 +3°C° 0 mm 0 mps 716 mmHg 69%
    04:00 +4°C° 0 mm 1 mps 716 mmHg 70%
    05:00 +4°C° 0 mm 1 mps 716 mmHg 70%
    06:00 +6°C° 0 mm 1 mps 716 mmHg 64%
    07:00 +8°C° 0 mm 1 mps 716 mmHg 57%
    08:00 +9°C° 0 mm 1 mps 716 mmHg 51%
    09:00 +11°C° 0 mm 1 mps 715 mmHg 47%
    10:00 +12°C° 0 mm 2 mps 714 mmHg 43%
    11:00 +14°C° 0 mm 2 mps 714 mmHg 39%
    12:00 +15°C° 0 mm 2 mps 713 mmHg 36%
    13:00 +16°C° 0 mm 2 mps 713 mmHg 33%
    14:00 +17°C° 0 mm 2 mps 712 mmHg 31%
    15:00 +16°C° 0.1 mm 2 mps 712 mmHg 33%
    16:00 +16°C° 0.1 mm 1 mps 712 mmHg 35%
    17:00 +16°C° 0.1 mm 1 mps 712 mmHg 37%
    18:00 +14°C° 0.3 mm 1 mps 712 mmHg 43%
    19:00 +13°C° 0.3 mm 1 mps 713 mmHg 50%
    20:00 +11°C° 0.3 mm 1 mps 713 mmHg 56%
    21:00 +9°C° 0.1 mm 2 mps 713 mmHg 60%
    22:00 +8°C° 0.1 mm 2 mps 714 mmHg 63%
    23:00 +7°C° 0.1 mm 3 mps 714 mmHg 67%
    Show more